Location: Asheville, NC
(35.6000°N, 82.5500°W)
Time: 07:15:13
(UTC-04:00)

KKS-1 - Pass Details

Date: 07 January 2018
Orbit: 638 x 650 km, 98.4° (Epoch: 19 July)

Event Time Altitude Azimuth Distance (km) Brightness Sun altitude
Rises 19:05:31 0° 351° (N) 2,946 ? -18.4°
Reaches altitude 10° 19:08:30 10° 330° (NNW) 2,034 ? -18.9°
Maximum altitude 19:11:04 15° 294° (WNW) 1,697 ? -19.5°
Drops below altitude 10° 19:13:39 10° 258° (WSW) 2,031 ? -20.0°
Sets 19:16:39 0° 236° (SW) 2,939 ? -20.6°
